,,PA_Meas_PMT16A,,PR_Meas_QMR101_102,,RH_Meas_QMH101,,SR_Meas_QMS101,,TA_Meas_QMH101,,GenWind,,GenWind,
time,status,PA,status,PR,status,RH,status,SR,status,TA,status,DirAvg,status,SpdAvg,
2011-03-19, 00:00:05,VALID,916.456,VALID,0,VALID,96.9546,VALID,0.107441,VALID,20.0118,VALID,164,VALID,0.521094,
2011-03-19, 00:01:05,VALID,916.429,VALID,0,VALID,96.9927,VALID,0.107441,VALID,20.0523,VALID,164,VALID,0.409375,
2011-03-19, 00:02:05,VALID,916.446,VALID,0,VALID,96.9622,VALID,0,VALID,20.0313,VALID,279,VALID,0.607813,
2011-03-19, 00:03:05,VALID,916.442,VALID,0,VALID,97.008,VALID,0.107441,VALID,20.0718,VALID,279,VALID,0.415234,
2011-03-19, 00:04:05,VALID,916.446,VALID,0,VALID,96.9775,VALID,0.107441,VALID,20.0328,VALID,280,VALID,0.323438,
2011-03-19, 00:05:05,VALID,916.459,VALID,0,VALID,96.9394,VALID,0.107441,VALID,19.9923,VALID,280,VALID,0.539063,
2011-03-19, 00:06:05,VALID,916.467,VALID,0,VALID,96.9851,VALID,0,VALID,20.0148,VALID,279,VALID,0.498828,
2011-03-19, 00:07:05,VALID,916.439,VALID,0,VALID,96.9546,VALID,0,VALID,19.9953,VALID,279,VALID,0.546094,
2011-03-19, 00:08:05,VALID,916.437,VALID,0,VALID,96.9546,VALID,0,VALID,19.9548,VALID,279,VALID,0.535937,
2011-03-19, 00:09:05,VALID,916.438,VALID,0,VALID,96.9546,VALID,0,VALID,19.9758,VALID,279,VALID,0.744922,
2011-03-19, 00:10:05,VALID,916.421,VALID,0,VALID,96.9394,VALID,0,VALID,19.9563,VALID,280,VALID,0.749219,
2011-03-19, 00:11:05,VALID,916.456,VALID,0,VALID,96.9927,VALID,0,VALID,19.9158,VALID,280,VALID,0.91875,
2011-03-19, 00:12:05,VALID,916.462,VALID,0,VALID,97.0385,VALID,0,VALID,19.9563,VALID,280,VALID,1.06172,
2011-03-19, 00:13:05,VALID,916.439,VALID,0,VALID,97.0308,VALID,0,VALID,19.9548,VALID,280,VALID,0.66875,
2011-03-19, 00:14:05,VALID,916.432,VALID,0,VALID,97.0461,VALID,0,VALID,20.0148,VALID,280,VALID,0.685547,
2011-03-19, 00:15:05,VALID,916.421,VALID,0,VALID,97.0537,VALID,0,VALID,20.0148,VALID,280,VALID,0.585547,
2011-03-19, 00:16:05,VALID,916.381,VALID,0,VALID,97.0461,VALID,0,VALID,20.0343,VALID,280,VALID,0.938672,
2011-03-19, 00:17:05,VALID,916.316,VALID,0,VALID,97.0537,VALID,0,VALID,20.0343,VALID,280,VALID,0.801953,
2011-03-19, 00:18:05,VALID,916.326,VALID,0,VALID,97.0461,VALID,0,VALID,20.0148,VALID,280,VALID,0.343359,
2011-03-19, 00:19:05,VALID,916.317,VALID,0,VALID,97.0461,VALID,0,VALID,20.0343,VALID,280,VALID,0.215234,
2011-03-19, 00:20:05,VALID,916.315,VALID,0,VALID,97.0613,VALID,0,VALID,20.0343,VALID,280,VALID,0.0597656,
2011-03-19, 00:21:05,VALID,916.29,VALID,0,VALID,97.0537,VALID,0,VALID,20.0538,VALID,280,VALID,0.733594,
2011-03-19, 00:22:05,VALID,916.285,VALID,0,VALID,97.069,VALID,0,VALID,20.0928,VALID,280,VALID,0.862109,
2011-03-19, 00:23:05,VALID,916.285,VALID,0,VALID,97.0461,VALID,0,VALID,20.1123,VALID,280,VALID,0.710547,
2011-03-19, 00:24:05,VALID,916.33,VALID,0,VALID,97.069,VALID,0,VALID,20.0733,VALID,280,VALID,0.09375,
2011-03-19, 00:25:05,VALID,916.31,VALID,0,VALID,97.069,VALID,0,VALID,20.0733,VALID,279,VALID,0,
2011-03-19, 00:26:05,VALID,916.326,VALID,0,VALID,97.0766,VALID,0,VALID,20.0928,VALID,280,VALID,0.0121094,
2011-03-19, 00:27:05,VALID,916.344,VALID,0,VALID,97.069,VALID,0,VALID,20.1123,VALID,280,VALID,0.271484,
2011-03-19, 00:28:05,VALID,916.35,VALID,0,VALID,97.069,VALID,0,VALID,20.1123,VALID,280,VALID,0.356641,
2011-03-19, 00:29:05,VALID,916.327,VALID,0,VALID,97.0918,VALID,0,VALID,20.1123,VALID,280,VALID,0.405859,
2011-03-19, 00:30:05,VALID,916.335,VALID,0,VALID,97.0537,VALID,0,VALID,20.0718,VALID,280,VALID,0.459375,
2011-03-19, 00:31:05,VALID,916.302,VALID,0,VALID,97.0994,VALID,0,VALID,20.0733,VALID,280,VALID,0.682813,
2011-03-19, 00:32:05,VALID,916.308,VALID,0,VALID,97.069,VALID,0,VALID,20.0343,VALID,280,VALID,1.01836,
2011-03-19, 00:33:05,VALID,916.292,VALID,0,VALID,97.0537,VALID,0,VALID,19.9953,VALID,280,VALID,0.858984,
2011-03-19, 00:34:05,VALID,916.287,VALID,0,VALID,97.0766,VALID,0,VALID,19.9953,VALID,279,VALID,0.320313,
2011-03-19, 00:35:05,VALID,916.276,VALID,0,VALID,97.0766,VALID,0,VALID,20.0148,VALID,280,VALID,0.477344,
2011-03-19, 00:36:05,VALID,916.303,VALID,0,VALID,97.0918,VALID,0,VALID,20.0328,VALID,280,VALID,0.317969,
2011-03-19, 00:37:05,VALID,916.297,VALID,0,VALID,97.0842,VALID,0,VALID,20.0328,VALID,280,VALID,0.466016,
2011-03-19, 00:38:05,VALID,916.308,VALID,0,VALID,97.0918,VALID,0.107441,VALID,20.0133,VALID,280,VALID,0.322656,
2011-03-19, 00:39:05,VALID,916.339,VALID,0,VALID,97.0918,VALID,0.107441,VALID,19.9938,VALID,280,VALID,0.444531,
2011-03-19, 00:40:05,VALID,916.341,VALID,0,VALID,97.1071,VALID,0,VALID,20.0328,VALID,280,VALID,0.140625,
2011-03-19, 00:41:05,VALID,916.363,VALID,0,VALID,97.1147,VALID,0,VALID,20.0523,VALID,280,VALID,0,
2011-03-19, 00:42:05,VALID,916.33,VALID,0,VALID,97.0918,VALID,0,VALID,20.0523,VALID,280,VALID,0,
2011-03-19, 00:43:05,VALID,916.334,VALID,0,VALID,97.1147,VALID,0.107441,VALID,20.0328,VALID,280,VALID,0,
2011-03-19, 00:44:05,VALID,916.352,VALID,0,VALID,97.1223,VALID,0,VALID,20.0523,VALID,280,VALID,0.277344,
2011-03-19, 00:45:05,VALID,916.33,VALID,0,VALID,97.1223,VALID,0,VALID,20.0523,VALID,280,VALID,0.191016,
2011-03-19, 00:46:05,VALID,916.299,VALID,0,VALID,97.1147,VALID,0.107441,VALID,20.0523,VALID,280,VALID,0.224219,
2011-03-19, 00:47:05,VALID,916.292,VALID,0,VALID,97.1376,VALID,0.107441,VALID,20.0328,VALID,280,VALID,0.111719,
2011-03-19, 00:48:05,VALID,916.29,VALID,0,VALID,97.1147,VALID,0.107441,VALID,19.9938,VALID,280,VALID,0,
2011-03-19, 00:49:05,VALID,916.26,VALID,0,VALID,97.1147,VALID,0,VALID,19.9548,VALID,280,VALID,0,
2011-03-19, 00:50:05,VALID,916.262,VALID,0,VALID,97.0994,VALID,0,VALID,19.9353,VALID,280,VALID,0,
2011-03-19, 00:51:05,VALID,916.242,VALID,0,VALID,97.1147,VALID,0,VALID,19.9158,VALID,280,VALID,0,
2011-03-19, 00:52:05,VALID,916.236,VALID,0,VALID,97.1223,VALID,0.107441,VALID,19.8963,VALID,280,VALID,0.123438,
2011-03-19, 00:53:05,VALID,916.234,VALID,0,VALID,97.0766,VALID,0,VALID,19.8573,VALID,280,VALID,0.254687,
2011-03-19, 00:54:05,VALID,916.198,VALID,0,VALID,97.0766,VALID,0.107441,VALID,19.8378,VALID,280,VALID,0,
2011-03-19, 00:55:05,VALID,916.223,VALID,0,VALID,97.0994,VALID,0,VALID,19.8588,VALID,280,VALID,0.046875,
2011-03-19, 00:56:05,VALID,916.192,VALID,0,VALID,97.1147,VALID,0.107441,VALID,19.8378,VALID,280,VALID,0.35625,
2011-03-19, 00:57:05,VALID,916.171,VALID,0,VALID,97.1452,VALID,0,VALID,19.8558,VALID,280,VALID,0.282813,
2011-03-19, 00:58:05,VALID,916.164,VALID,0,VALID,97.1452,VALID,0,VALID,19.9158,VALID,279,VALID,0.361719,
2011-03-19, 00:59:05,VALID,916.184,VALID,0,VALID,97.1528,VALID,0.107441,VALID,19.9173,VALID,280,VALID,0.287891,
2011-03-19, 01:00:05,VALID,916.133,VALID,0,VALID,97.1452,VALID,0,VALID,19.9353,VALID,279,VALID,0.505469,
2011-03-19, 01:01:05,VALID,916.144,VALID,0,VALID,97.1452,VALID,0.107441,VALID,19.9548,VALID,279,VALID,0.472266,
2011-03-19, 01:02:05,VALID,916.188,VALID,0,VALID,97.1604,VALID,0,VALID,19.9548,VALID,279,VALID,0.64375,
2011-03-19, 01:03:05,VALID,916.171,VALID,0,VALID,97.1528,VALID,0.107441,VALID,19.9533,VALID,280,VALID,0.517578,
2011-03-19, 01:04:05,VALID,916.142,VALID,0,VALID,97.1452,VALID,0.107441,VALID,19.9548,VALID,280,VALID,0.408594,
2011-03-19, 01:05:05,VALID,916.167,VALID,0,VALID,97.1604,VALID,0.107441,VALID,19.9548,VALID,280,VALID,0.333984,
2011-03-19, 01:06:05,VALID,916.131,VALID,0,VALID,97.1604,VALID,0,VALID,19.9563,VALID,280,VALID,0.328125,
2011-03-19, 01:07:05,VALID,916.128,VALID,0,VALID,97.1681,VALID,0,VALID,19.9353,VALID,280,VALID,0.211719,
2011-03-19, 01:08:05,VALID,916.112,VALID,0,VALID,97.1681,VALID,0,VALID,19.9548,VALID,279,VALID,0.235938,
2011-03-19, 01:09:05,VALID,916.091,VALID,0,VALID,97.1833,VALID,0,VALID,19.9758,VALID,280,VALID,0.370703,
2011-03-19, 01:10:05,VALID,916.058,VALID,0,VALID,97.1909,VALID,0,VALID,19.9758,VALID,280,VALID,0.240625,
2011-03-19, 01:11:05,VALID,916.068,VALID,0,VALID,97.1833,VALID,0,VALID,19.9938,VALID,280,VALID,0.261328,
2011-03-19, 01:12:05,VALID,915.993,VALID,0,VALID,97.1757,VALID,0,VALID,20.0148,VALID,280,VALID,0.241797,
2011-03-19, 01:13:05,VALID,915.999,VALID,0,VALID,97.1757,VALID,0,VALID,20.0148,VALID,279,VALID,0.415234,
2011-03-19, 01:14:05,VALID,915.969,VALID,0,VALID,97.1833,VALID,0,VALID,19.9938,VALID,280,VALID,0.383203,
2011-03-19, 01:15:05,VALID,915.969,VALID,0,VALID,97.1986,VALID,0,VALID,19.9953,VALID,280,VALID,0.319141,
2011-03-19, 01:16:05,VALID,915.957,VALID,0,VALID,97.1681,VALID,0,VALID,19.9743,VALID,280,VALID,0.350391,
2011-03-19, 01:17:05,VALID,915.934,VALID,0,VALID,97.1757,VALID,0,VALID,19.9953,VALID,280,VALID,0.3875,
2011-03-19, 01:18:05,VALID,915.918,VALID,0,VALID,97.1833,VALID,0,VALID,19.9953,VALID,280,VALID,0.249609,
2011-03-19, 01:19:05,VALID,915.945,VALID,0,VALID,97.1452,VALID,0,VALID,19.9743,VALID,280,VALID,0,
2011-03-19, 01:20:05,VALID,915.943,VALID,0,VALID,97.1909,VALID,0,VALID,20.0148,VALID,280,VALID,0,
2011-03-19, 01:21:05,VALID,915.934,VALID,0,VALID,97.1909,VALID,0,VALID,19.9953,VALID,280,VALID,0.366016,
2011-03-19, 01:22:05,VALID,915.948,VALID,0,VALID,97.1833,VALID,0,VALID,19.9548,VALID,280,VALID,0.448047,
2011-03-19, 01:23:05,VALID,915.938,VALID,0,VALID,97.1757,VALID,0,VALID,19.9368,VALID,280,VALID,0.585156,
2011-03-19, 01:24:05,VALID,915.945,VALID,0,VALID,97.1986,VALID,0,VALID,19.8978,VALID,280,VALID,0.535156,
2011-03-19, 01:25:05,VALID,915.945,VALID,0,VALID,97.1909,VALID,0,VALID,19.8783,VALID,280,VALID,0.569922,
2011-03-19, 01:26:05,VALID,915.959,VALID,0,VALID,97.1757,VALID,0,VALID,19.8783,VALID,280,VALID,0.289453,
2011-03-19, 01:27:05,VALID,915.948,VALID,0,VALID,97.1909,VALID,0,VALID,19.8588,VALID,280,VALID,0.354688,
2011-03-19, 01:28:05,VALID,915.947,VALID,0,VALID,97.1986,VALID,0,VALID,19.8393,VALID,280,VALID,0.274219,
2011-03-19, 01:29:05,VALID,915.891,VALID,0,VALID,97.1681,VALID,0,VALID,19.7793,VALID,280,VALID,0.466406,
2011-03-19, 01:30:05,VALID,915.859,VALID,0,VALID,97.1528,VALID,0,VALID,19.7223,VALID,280,VALID,0.548047,
2011-03-19, 01:31:05,VALID,915.841,VALID,0,VALID,97.1681,VALID,0,VALID,19.7028,VALID,280,VALID,0.792188,
2011-03-19, 01:32:05,VALID,915.813,VALID,0,VALID,97.1604,VALID,0,VALID,19.6638,VALID,280,VALID,0.957422,
2011-03-19, 01:33:05,VALID,915.786,VALID,0,VALID,97.1681,VALID,0,VALID,19.6053,VALID,280,VALID,0.883594,
2011-03-19, 01:34:05,VALID,915.748,VALID,0,VALID,97.1833,VALID,0,VALID,19.5663,VALID,279,VALID,0.826172,
2011-03-19, 01:35:05,VALID,915.72,VALID,0,VALID,97.1909,VALID,0,VALID,19.5468,VALID,241,VALID,0.865625,
2011-03-19, 01:36:05,VALID,915.714,VALID,0,VALID,97.1986,VALID,0,VALID,19.5843,VALID,115,VALID,0.844141,
2011-03-19, 01:37:05,VALID,915.697,VALID,0,VALID,97.2443,VALID,0,VALID,19.6038,VALID,115,VALID,0.596484,
2011-03-19, 01:38:04,VALID,915.677,VALID,0,VALID,97.229,VALID,0.107441,VALID,19.6038,VALID,116,VALID,1.02148,
2011-03-19, 01:39:04,VALID,915.674,VALID,0,VALID,97.2367,VALID,0,VALID,19.5843,VALID,116,VALID,0.987891,
2011-03-19, 01:40:04,VALID,915.662,VALID,0,VALID,97.2367,VALID,0.107441,VALID,19.6038,VALID,116,VALID,0.973047,
2011-03-19, 01:41:04,VALID,915.662,VALID,0,VALID,97.2367,VALID,0.107441,VALID,19.6038,VALID,116,VALID,0.795313,
2011-03-19, 01:42:04,VALID,915.654,VALID,0,VALID,97.2519,VALID,0.107441,VALID,19.5648,VALID,116,VALID,0.826563,
2011-03-19, 01:43:04,VALID,915.642,VALID,0,VALID,97.2519,VALID,0,VALID,19.5453,VALID,116,VALID,1.03555,
2011-03-19, 01:44:04,VALID,915.654,VALID,0,VALID,97.2595,VALID,0.107441,VALID,19.5243,VALID,116,VALID,0.976172,
2011-03-19, 01:45:04,VALID,915.656,VALID,0,VALID,97.2595,VALID,0,VALID,19.5453,VALID,119,VALID,0.850391,
2011-03-19, 01:46:04,VALID,915.68,VALID,0,VALID,97.2595,VALID,0.107441,VALID,19.5258,VALID,119,VALID,0.715234,
2011-03-19, 01:47:04,VALID,915.68,VALID,0,VALID,97.2672,VALID,0.107441,VALID,19.5453,VALID,124,VALID,0.823828,
2011-03-19, 01:48:04,VALID,915.614,VALID,0,VALID,97.2672,VALID,0,VALID,19.5663,VALID,129,VALID,0.530859,
2011-03-19, 01:49:04,VALID,915.599,VALID,0,VALID,97.29,VALID,0.107441,VALID,19.5648,VALID,129,VALID,0.413281,
2011-03-19, 01:50:04,VALID,915.623,VALID,0,VALID,97.2977,VALID,0,VALID,19.6038,VALID,129,VALID,0.0128906,
2011-03-19, 01:51:04,VALID,915.626,VALID,0,VALID,97.2977,VALID,0,VALID,19.6443,VALID,129,VALID,0.0121094,
2011-03-19, 01:52:04,VALID,915.606,VALID,0,VALID,97.3053,VALID,0,VALID,19.6638,VALID,129,VALID,0.422656,
2011-03-19, 01:53:04,VALID,915.605,VALID,0,VALID,97.29,VALID,0,VALID,19.6638,VALID,129,VALID,0.466406,
2011-03-19, 01:54:04,VALID,915.574,VALID,0,VALID,97.2977,VALID,0,VALID,19.6638,VALID,129,VALID,0.530469,
2011-03-19, 01:55:04,VALID,915.574,VALID,0,VALID,97.3129,VALID,0,VALID,19.6833,VALID,129,VALID,0.452734,
2011-03-19, 01:56:04,VALID,915.52,VALID,0,VALID,97.3053,VALID,0,VALID,19.7028,VALID,129,VALID,0.784375,
2011-03-19, 01:57:04,VALID,915.513,VALID,0,VALID,97.3205,VALID,0,VALID,19.7223,VALID,130,VALID,0.686719,
2011-03-19, 01:58:04,VALID,915.513,VALID,0,VALID,97.2977,VALID,0,VALID,19.6833,VALID,130,VALID,0.844141,
2011-03-19, 01:59:04,VALID,915.51,VALID,0,VALID,97.3053,VALID,0,VALID,19.6833,VALID,150,VALID,1.13906,
2011-03-19, 02:00:04,VALID,915.516,VALID,0,VALID,97.3053,VALID,0,VALID,19.6638,VALID,158,VALID,0.821094,
2011-03-19, 02:01:04,VALID,915.484,VALID,0,VALID,97.3205,VALID,0,VALID,19.6638,VALID,158,VALID,0.710938,
2011-03-19, 02:02:04,VALID,915.473,VALID,0.2,VALID,97.3358,VALID,0,VALID,19.6848,VALID,158,VALID,1.40391,
2011-03-19, 02:03:04,VALID,915.483,VALID,0,VALID,97.3129,VALID,0,VALID,19.6638,VALID,158,VALID,0.637109,
2011-03-19, 02:04:04,VALID,915.434,VALID,0,VALID,97.3205,VALID,0,VALID,19.6833,VALID,155,VALID,1.29688,
2011-03-19, 02:05:04,VALID,915.428,VALID,0,VALID,97.3281,VALID,0,VALID,19.6638,VALID,167,VALID,1.17227,
2011-03-19, 02:06:04,VALID,915.438,VALID,0,VALID,97.3053,VALID,0,VALID,19.6833,VALID,167,VALID,0.636328,
2011-03-19, 02:07:04,VALID,915.417,VALID,0,VALID,97.3205,VALID,0,VALID,19.6638,VALID,167,VALID,1.01484,
2011-03-19, 02:08:04,VALID,915.403,VALID,0,VALID,97.3205,VALID,0,VALID,19.6833,VALID,167,VALID,0.205469,
2011-03-19, 02:09:04,VALID,915.427,VALID,0,VALID,97.3434,VALID,0,VALID,19.7028,VALID,167,VALID,0.286719,
2011-03-19, 02:10:04,VALID,915.406,VALID,0,VALID,97.3205,VALID,0,VALID,19.6833,VALID,167,VALID,0.305078,
2011-03-19, 02:11:04,VALID,915.373,VALID,0,VALID,97.3358,VALID,0,VALID,19.6833,VALID,167,VALID,0.580859,
2011-03-19, 02:12:04,VALID,915.352,VALID,0,VALID,97.3281,VALID,0,VALID,19.6443,VALID,167,VALID,0.503125,
2011-03-19, 02:13:04,VALID,915.349,VALID,0,VALID,97.3358,VALID,0,VALID,19.6443,VALID,167,VALID,0.55625,
2011-03-19, 02:14:04,VALID,915.313,VALID,0,VALID,97.3281,VALID,0,VALID,19.6443,VALID,167,VALID,0.534766,
2011-03-19, 02:15:04,VALID,915.344,VALID,0,VALID,97.351,VALID,0,VALID,19.6248,VALID,167,VALID,0.280469,
2011-03-19, 02:16:04,VALID,915.332,VALID,0,VALID,97.3663,VALID,0,VALID,19.6443,VALID,167,VALID,0.278906,
2011-03-19, 02:17:04,VALID,915.338,VALID,0,VALID,97.351,VALID,0,VALID,19.6638,VALID,167,VALID,0.177734,
2011-03-19, 02:18:04,VALID,915.341,VALID,0,VALID,97.3434,VALID,0,VALID,19.6638,VALID,167,VALID,0,
2011-03-19, 02:19:04,VALID,915.354,VALID,0,VALID,97.351,VALID,0,VALID,19.6833,VALID,167,VALID,0,
2011-03-19, 02:20:04,VALID,915.36,VALID,0,VALID,97.3434,VALID,0,VALID,19.6833,VALID,167,VALID,0,
2011-03-19, 02:21:04,VALID,915.353,VALID,0,VALID,97.3434,VALID,0,VALID,19.7028,VALID,167,VALID,0,
2011-03-19, 02:22:04,VALID,915.313,VALID,0,VALID,97.351,VALID,0,VALID,19.7238,VALID,167,VALID,0.435547,
2011-03-19, 02:23:04,VALID,915.299,VALID,0,VALID,97.3434,VALID,0,VALID,19.7223,VALID,141,VALID,0.584375,
2011-03-19, 02:24:04,VALID,915.283,VALID,0,VALID,97.3739,VALID,0,VALID,19.7418,VALID,155,VALID,1.19609,
2011-03-19, 02:25:04,VALID,915.265,VALID,0,VALID,97.351,VALID,0,VALID,19.7223,VALID,155,VALID,0.59375,
2011-03-19, 02:26:04,VALID,915.281,VALID,0,VALID,97.3586,VALID,0,VALID,19.7028,VALID,155,VALID,0.439844,
2011-03-19, 02:27:04,VALID,915.231,VALID,0,VALID,97.3586,VALID,0,VALID,19.7028,VALID,155,VALID,0.582422,
2011-03-19, 02:28:04,VALID,915.238,VALID,0,VALID,97.3663,VALID,0,VALID,19.6638,VALID,155,VALID,0.451953,
2011-03-19, 02:29:04,VALID,915.246,VALID,0,VALID,97.3586,VALID,0,VALID,19.6443,VALID,155,VALID,0.488281,
2011-03-19, 02:30:04,VALID,915.242,VALID,0,VALID,97.351,VALID,0,VALID,19.6638,VALID,155,VALID,0.700781,
2011-03-19, 02:31:04,VALID,915.272,VALID,0,VALID,97.3739,VALID,0,VALID,19.7028,VALID,155,VALID,0.746094,
2011-03-19, 02:32:04,VALID,915.232,VALID,0,VALID,97.3663,VALID,0,VALID,19.6833,VALID,155,VALID,0.683203,
2011-03-19, 02:33:04,VALID,915.253,VALID,0,VALID,97.3663,VALID,0,VALID,19.6833,VALID,155,VALID,0.299609,
2011-03-19, 02:34:04,VALID,915.226,VALID,0,VALID,97.3815,VALID,0,VALID,19.7028,VALID,155,VALID,0.399219,
2011-03-19, 02:35:04,VALID,915.227,VALID,0,VALID,97.3815,VALID,0,VALID,19.7028,VALID,155,VALID,0.832031,
2011-03-19, 02:36:04,VALID,915.193,VALID,0,VALID,97.3815,VALID,0,VALID,19.7028,VALID,164,VALID,0.949609,
2011-03-19, 02:37:04,VALID,915.157,VALID,0,VALID,97.3739,VALID,0,VALID,19.7223,VALID,164,VALID,0.259375,
2011-03-19, 02:38:04,VALID,915.166,VALID,0,VALID,97.3739,VALID,0,VALID,19.7418,VALID,164,VALID,0.420703,
2011-03-19, 02:39:04,VALID,915.155,VALID,0,VALID,97.3815,VALID,0,VALID,19.7418,VALID,164,VALID,0.443359,
2011-03-19, 02:40:04,VALID,915.141,VALID,0,VALID,97.3891,VALID,0,VALID,19.7418,VALID,164,VALID,0.662891,
2011-03-19, 02:41:04,VALID,915.135,VALID,0,VALID,97.3739,VALID,0,VALID,19.7418,VALID,164,VALID,0.751562,
2011-03-19, 02:42:04,VALID,915.136,VALID,0,VALID,97.3891,VALID,0,VALID,19.7418,VALID,191,VALID,0.591016,
2011-03-19, 02:43:04,VALID,915.147,VALID,0,VALID,97.412,VALID,0,VALID,19.7613,VALID,191,VALID,0.655469,
2011-03-19, 02:44:04,VALID,915.133,VALID,0,VALID,97.3663,VALID,0,VALID,19.7613,VALID,171,VALID,0.609766,
2011-03-19, 02:45:04,VALID,915.101,VALID,0,VALID,97.3739,VALID,0,VALID,19.8018,VALID,171,VALID,0.643359,
2011-03-19, 02:46:04,VALID,915.102,VALID,0,VALID,97.3815,VALID,0,VALID,19.8003,VALID,171,VALID,0.955078,
2011-03-19, 02:47:04,VALID,915.097,VALID,0,VALID,97.3968,VALID,0,VALID,19.8003,VALID,171,VALID,0.211719,
2011-03-19, 02:48:04,VALID,915.134,VALID,0,VALID,97.3891,VALID,0,VALID,19.7808,VALID,171,VALID,0.202344,
2011-03-19, 02:49:04,VALID,915.111,VALID,0,VALID,97.3891,VALID,0,VALID,19.7808,VALID,171,VALID,0.117578,
2011-03-19, 02:50:04,VALID,915.127,VALID,0,VALID,97.3739,VALID,0,VALID,19.7808,VALID,171,VALID,0.347656,
2011-03-19, 02:51:04,VALID,915.117,VALID,0,VALID,97.3663,VALID,0,VALID,19.7598,VALID,171,VALID,0.253125,
2011-03-19, 02:52:04,VALID,915.117,VALID,0,VALID,97.3891,VALID,0,VALID,19.7208,VALID,171,VALID,0,
2011-03-19, 02:53:04,VALID,915.095,VALID,0,VALID,97.3663,VALID,0,VALID,19.7808,VALID,171,VALID,0,
2011-03-19, 02:54:04,VALID,915.067,VALID,0,VALID,97.3815,VALID,0.107441,VALID,19.7403,VALID,171,VALID,0.308594,
2011-03-19, 02:55:04,VALID,915.084,VALID,0,VALID,97.3891,VALID,0.107441,VALID,19.7598,VALID,171,VALID,0.319141,
2011-03-19, 02:56:04,VALID,915.07,VALID,0,VALID,97.3891,VALID,0.107441,VALID,19.7403,VALID,171,VALID,0,
2011-03-19, 02:57:04,VALID,915.084,VALID,0,VALID,97.3815,VALID,0,VALID,19.7598,VALID,171,VALID,0,
2011-03-19, 02:58:04,VALID,915.036,VALID,0,VALID,97.3815,VALID,0,VALID,19.7598,VALID,171,VALID,0.200781,
2011-03-19, 02:59:04,VALID,915.023,VALID,0,VALID,97.3663,VALID,0.107441,VALID,19.7208,VALID,171,VALID,0.678516,
2011-03-19, 03:00:04,VALID,915.032,VALID,0,VALID,97.3815,VALID,0.107441,VALID,19.6428,VALID,171,VALID,0.541016,
2011-03-19, 03:01:04,VALID,915.026,VALID,0,VALID,97.3663,VALID,0,VALID,19.6233,VALID,171,VALID,0.658984,
2011-03-19, 03:02:04,VALID,914.995,VALID,0,VALID,97.3968,VALID,0,VALID,19.6233,VALID,171,VALID,0.646094,
2011-03-19, 03:03:04,VALID,915.03,VALID,0,VALID,97.3815,VALID,0.107441,VALID,19.5843,VALID,171,VALID,0.412109,
2011-03-19, 03:04:04,VALID,915,VALID,0,VALID,97.3739,VALID,0,VALID,19.5453,VALID,171,VALID,0.488672,
2011-03-19, 03:05:04,VALID,914.984,VALID,0,VALID,97.3663,VALID,0.107441,VALID,19.5063,VALID,171,VALID,0.406641,
2011-03-19, 03:06:04,VALID,915.019,VALID,0,VALID,97.3815,VALID,0.107441,VALID,19.4673,VALID,171,VALID,0.49375,
2011-03-19, 03:07:04,VALID,914.981,VALID,0,VALID,97.3815,VALID,0,VALID,19.4688,VALID,171,VALID,0.531641,
2011-03-19, 03:08:04,VALID,914.998,VALID,0,VALID,97.3815,VALID,0.107441,VALID,19.4478,VALID,171,VALID,0.7125,
2011-03-19, 03:09:04,VALID,914.974,VALID,0,VALID,97.3815,VALID,0.107441,VALID,19.4088,VALID,171,VALID,0.644922,
2011-03-19, 03:10:04,VALID,914.987,VALID,0,VALID,97.3815,VALID,0.107441,VALID,19.3698,VALID,171,VALID,0.579687,
2011-03-19, 03:11:04,VALID,914.953,VALID,0,VALID,97.3891,VALID,0,VALID,19.3308,VALID,171,VALID,0.476563,
2011-03-19, 03:12:04,VALID,914.94,VALID,0,VALID,97.4044,VALID,0,VALID,19.3308,VALID,171,VALID,0.459766,
2011-03-19, 03:13:04,VALID,914.924,VALID,0,VALID,97.4196,VALID,0,VALID,19.3308,VALID,171,VALID,0.464063,
2011-03-19, 03:14:04,VALID,914.891,VALID,0,VALID,97.4273,VALID,0.107441,VALID,19.3503,VALID,171,VALID,0.384766,
2011-03-19, 03:15:04,VALID,914.868,VALID,0,VALID,97.4196,VALID,0,VALID,19.3503,VALID,171,VALID,0.324219,
2011-03-19, 03:16:04,VALID,914.879,VALID,0,VALID,97.4196,VALID,0,VALID,19.3698,VALID,171,VALID,0.059375,
2011-03-19, 03:17:04,VALID,914.863,VALID,0,VALID,97.4273,VALID,0.107441,VALID,19.3893,VALID,171,VALID,0.320703,
2011-03-19, 03:18:04,VALID,914.901,VALID,0,VALID,97.4425,VALID,0,VALID,19.4493,VALID,171,VALID,0.445703,
2011-03-19, 03:19:04,VALID,914.852,VALID,0,VALID,97.4196,VALID,0,VALID,19.4088,VALID,171,VALID,0.460156,
2011-03-19, 03:20:04,VALID,914.865,VALID,0,VALID,97.4349,VALID,0,VALID,19.4088,VALID,171,VALID,0.627344,
2011-03-19, 03:21:04,VALID,914.88,VALID,0,VALID,97.4349,VALID,0,VALID,19.4283,VALID,171,VALID,0.742188,
2011-03-19, 03:22:04,VALID,914.882,VALID,0,VALID,97.4501,VALID,0,VALID,19.4478,VALID,171,VALID,0.610156,
2011-03-19, 03:23:04,VALID,914.888,VALID,0,VALID,97.4273,VALID,0,VALID,19.4283,VALID,171,VALID,0.982813,
2011-03-19, 03:24:04,VALID,914.865,VALID,0,VALID,97.4196,VALID,0.107441,VALID,19.3113,VALID,171,VALID,0.691016,
2011-03-19, 03:25:04,VALID,914.874,VALID,0,VALID,97.4273,VALID,0,VALID,19.3503,VALID,171,VALID,0.642187,
2011-03-19, 03:26:04,VALID,914.836,VALID,0,VALID,97.4349,VALID,0.107441,VALID,19.4088,VALID,171,VALID,0.451953,
2011-03-19, 03:27:04,VALID,914.84,VALID,0,VALID,97.4273,VALID,0,VALID,19.4283,VALID,171,VALID,0.682813,
2011-03-19, 03:28:04,VALID,914.824,VALID,0,VALID,97.4425,VALID,0.107441,VALID,19.4283,VALID,170,VALID,0.536719,
2011-03-19, 03:29:04,VALID,914.775,VALID,0,VALID,97.4577,VALID,0.107441,VALID,19.4283,VALID,170,VALID,0.470703,
2011-03-19, 03:30:04,VALID,914.812,VALID,0,VALID,97.4654,VALID,0,VALID,19.4088,VALID,170,VALID,0.36875,
2011-03-19, 03:31:04,VALID,914.81,VALID,0,VALID,97.4501,VALID,0.107441,VALID,19.4283,VALID,170,VALID,0.112891,
2011-03-19, 03:32:04,VALID,914.787,VALID,0,VALID,97.412,VALID,0,VALID,19.4298,VALID,170,VALID,0.225,
2011-03-19, 03:33:04,VALID,914.773,VALID,0,VALID,97.4349,VALID,0,VALID,19.2933,VALID,170,VALID,0.180469,
2011-03-19, 03:34:04,VALID,914.797,VALID,0,VALID,97.4349,VALID,0,VALID,19.2543,VALID,170,VALID,0.240625,
2011-03-19, 03:35:04,VALID,914.798,VALID,0,VALID,97.4425,VALID,0,VALID,19.2918,VALID,170,VALID,0.526172,
2011-03-19, 03:36:04,VALID,914.804,VALID,0,VALID,97.4425,VALID,0,VALID,19.2723,VALID,170,VALID,0.371094,
2011-03-19, 03:37:04,VALID,914.784,VALID,0,VALID,97.4501,VALID,0,VALID,19.2723,VALID,170,VALID,0.374609,
2011-03-19, 03:38:04,VALID,914.78,VALID,0,VALID,97.4349,VALID,0.107441,VALID,19.2709,VALID,170,VALID,0.878125,
2011-03-19, 03:39:04,VALID,914.765,VALID,0,VALID,97.4654,VALID,0,VALID,19.3698,VALID,170,VALID,0.730859,
2011-03-19, 03:40:04,VALID,914.761,VALID,0,VALID,97.473,VALID,0,VALID,19.3503,VALID,170,VALID,0.433203,
2011-03-19, 03:41:04,VALID,914.731,VALID,0,VALID,97.4577,VALID,0,VALID,19.3713,VALID,169,VALID,0.685156,
2011-03-19, 03:42:04,VALID,914.716,VALID,0,VALID,97.473,VALID,0,VALID,19.3503,VALID,169,VALID,0.855469,